Flag for Switzerland Weather past 2 weeks in Steffisburg, Bern, Switzerland

Now
55 °F

Clear.


Feels Like: 54 °F
Forecast: 53 / 76 °F
Wind: 6 mph from Southeast

Location: Bern / Belp

Current Time: Jul 25, 2014 at 5:45:44 AM

Latest Report: Jul 25, 2014 at 4:50 AM


Visibility: 10 mi

Pressure: 29.98 "Hg

Humidity: 94%

Dew point: 54 °F

Location of SteffisburgLocation

Historic Weather in Steffisburg — Graph

°F

Steffisburg temperature yesterday

Maximum temperature yesterday: 81 °F (at 6:20 PM)
Minimum temperature yesterday: 61 °F (at 2:20 AM)
Average temperature yesterday: 67 °F

Past Weeks' High & Low Weather Summary

 TemperatureHumidityPressure
High88 °F (Jul 18, 2:50 PM)100% (Jul 10, 11:20 AM)30.21 "Hg (Jul 10, 11:20 AM)
Low50 °F (Jul 10, 4:20 AM)29% (Jul 17, 6:20 PM)29.83 "Hg (Jul 10, 4:50 AM)
Average65 °F81%30.01 "Hg
* Reported Jul 10 4:20 AM — Jul 25 4:20 AM, Steffisburg, Weather by CustomWeather, © 2014

Note: Actual official high and low records may vary slightly from our data, if they occured in-between our weather recording intervals... More about our weather records

Advertising

Steffisburg weather history for previous 24 hours

 ConditionsComfort  
Time TempWeatherWind HumidityBarometerVisibility
4:20 AM
Jul 25
55 °FCool.5 mph94%29.95 "HgN/A
3:50 AM55 °FPassing clouds.7 mph94%29.98 "HgN/A
3:20 AM57 °FPassing clouds.7 mph88%29.98 "HgN/A
2:50 AM57 °FClear.6 mph94%29.98 "Hg10 mi
2:20 AM57 °FClear.6 mph94%29.98 "Hg10 mi
1:50 AM59 °FClear.7 mph88%29.98 "Hg10 mi
1:20 AM57 °FClear.6 mph94%29.98 "Hg10 mi
12:50 AM59 °FClear.8 mph88%29.98 "Hg10 mi
12:20 AM59 °FClear.6 mph94%29.98 "Hg10 mi
11:50 PM
Jul 24
61 °FPassing clouds.7 mph88%29.98 "HgN/A
11:20 PM61 °FClear.5 mph88%29.98 "Hg10 mi
10:50 PM61 °FPassing clouds.6 mph88%29.98 "HgN/A
10:20 PM61 °FPassing clouds.7 mph88%29.95 "HgN/A
9:50 PM61 °FPassing clouds.3 mph88%29.95 "HgN/A
9:20 PM66 °FPassing clouds.5 mph73%29.95 "HgN/A
8:50 PM68 °FScattered clouds.6 mph69%29.92 "HgN/A
8:20 PM70 °FScattered clouds.8 mph60%29.92 "HgN/A
7:50 PM72 °FScattered clouds.9 mph53%29.92 "HgN/A
7:20 PM72 °FScattered clouds.8 mph65%29.92 "HgN/A
6:50 PM75 °FScattered clouds.7 mph57%29.89 "HgN/A
6:20 PM81 °FScattered clouds.6 mph45%29.89 "HgN/A
5:50 PM79 °FBroken clouds.5 mph48%29.89 "HgN/A
5:20 PM77 °FBroken clouds.6 mph57%29.89 "HgN/A
4:50 PM72 °FBroken clouds.8 mph61%29.92 "HgN/A
4:20 PM77 °FThunderstorms. Scattered clouds.3 mph54%29.92 "HgN/A
3:50 PM77 °FScattered clouds.6 mph57%29.89 "HgN/A
3:20 PM79 °FScattered clouds.6 mph48%29.92 "HgN/A
2:50 PM77 °FScattered clouds.6 mph57%29.92 "HgN/A
2:20 PM77 °FScattered clouds.6 mph51%29.92 "HgN/A
1:50 PM75 °FScattered clouds.5 mph57%29.92 "HgN/A
1:20 PM73 °FScattered clouds.5 mph65%29.92 "HgN/A
12:50 PM72 °FScattered clouds.6 mph65%29.92 "HgN/A
12:20 PM68 °FPassing clouds.8 mph73%29.92 "HgN/A
11:50 AM68 °FScattered clouds.12 mph73%29.92 "HgN/A
11:20 AM64 °FBroken clouds.10 mph83%29.92 "HgN/A
10:50 AM64 °FScattered showers. Broken clouds.13 mph83%29.92 "HgN/A
10:20 AM64 °FScattered showers. Broken clouds.12 mph83%29.92 "HgN/A
9:50 AM66 °FPartly sunny.7 mph83%29.92 "HgN/A
9:20 AM66 °FScattered showers. Partly sunny.2 mph83%29.92 "HgN/A
8:50 AM64 °FThundershowers. Scattered clouds.2 mph88%29.89 "HgN/A
8:20 AM63 °FBroken clouds.1 mph94%29.89 "HgN/A
7:50 AM63 °FBroken clouds.2 mph94%29.89 "HgN/A
7:20 AM63 °FPartly sunny.No wind94%29.89 "HgN/A
6:50 AM61 °FPassing clouds.No wind100%29.89 "Hg5 mi
6:20 AM61 °FPartly cloudy.No wind100%29.86 "HgN/A
5:50 AM61 °FPartly cloudy.No wind100%29.86 "HgN/A
5:20 AM61 °FPartly cloudy.2 mph100%29.89 "Hg4 mi
Weather by CustomWeather, © 2014

See weather overviewHow to use our weather pages